| time (UTC) | temp C | wind direction | speed KPH | gust KPH | rain 1hr cm | rain 24hr cm | rain mn cm | humidity % | barometer mb |
| 20260503203522 | 21 | 189 | 6.4 | 20.9 | 0.00 | 0.00 | 0.00 | 40 | 1013.8 |
| 20260503202602 | 21 | 189 | 6.4 | 17.7 | 0.00 | 0.00 | 0.00 | 38 | 1014.1 |
| 20260503201522 | 21 | 212 | 11.3 | 25.7 | 0.00 | 0.03 | 0.00 | 40 | 1014.6 |
| 20260503200522 | 20 | 176 | 8.0 | 24.1 | 0.00 | 0.03 | 0.00 | 39 | 1014.8 |
| 20260503195517 | 21 | 199 | 9.7 | 29.0 | 0.00 | 0.03 | 0.00 | 38 | 1015.2 |
| 20260503194522 | 21 | 214 | 9.7 | 22.5 | 0.00 | 0.08 | 0.00 | 37 | 1015.5 |
| 20260503193522 | 20 | 225 | 11.3 | 24.1 | 0.00 | 0.08 | 0.00 | 38 | 1015.7 |
| 20260503192542 | 20 | 187 | 8.0 | 20.9 | 0.00 | 0.08 | 0.00 | 40 | 1015.8 |
| 20260503191542 | 20 | 194 | 11.3 | 22.5 | 0.00 | 0.08 | 0.00 | 38 | 1016.2 |
| 20260503190522 | 20 | 199 | 11.3 | 25.7 | 0.00 | 0.08 | 0.00 | 40 | 1016.4 |
| 20260503185537 | 20 | 178 | 6.4 | 19.3 | 0.00 | 0.08 | 0.00 | 43 | 1016.5 |
| 20260503184517 | 20 | 186 | 9.7 | 22.5 | 0.00 | 0.08 | 0.00 | 42 | 1016.7 |
| 20260503183521 | 20 | 197 | 6.4 | 19.3 | 0.00 | 0.08 | 0.00 | 41 | 1016.9 |
| 20260503182542 | 20 | 198 | 9.7 | 22.5 | 0.00 | 0.08 | 0.00 | 42 | 1017.1 |
| 20260503181521 | 20 | 228 | 9.7 | 20.9 | 0.00 | 0.08 | 0.00 | 44 | 1017.4 |
| 20260503180521 | 19 | 198 | 6.4 | 20.9 | 0.00 | 0.08 | 0.00 | 47 | 1017.5 |
| 20260503175522 | 18 | 186 | 8.0 | 22.5 | 0.00 | 0.08 | 0.00 | 48 | 1017.7 |
| 20260503174516 | 18 | 177 | 6.4 | 19.3 | 0.00 | 0.08 | 0.00 | 46 | 1018.0 |
| 20260503173542 | 17 | 173 | 6.4 | 19.3 | 0.00 | 0.08 | 0.00 | 48 | 1018.1 |
| 20260503172522 | 17 | 177 | 8.0 | 25.7 | 0.00 | 0.08 | 0.00 | 45 | 1018.4 |
| 20260503171522 | 17 | 185 | 8.0 | 20.9 | 0.00 | 0.08 | 0.00 | 48 | 1018.7 |
| 20260503170521 | 17 | 168 | 6.4 | 22.5 | 0.00 | 0.08 | 0.00 | 47 | 1019.0 |
| 20260503150522 | 13 | 183 | 8.0 | 19.3 | 0.00 | 0.08 | 0.00 | 57 | 1019.7 |
| 20260503130521 | 9 | 182 | 1.6 | 9.7 | 0.00 | 0.08 | 0.00 | 84 | 1020.0 |
| 20260503110516 | 5 | 0.0 | 0.0 | 0.00 | 0.08 | 0.00 | 92 | 1019.7 | |
| 20260503081521 | 5 | 0.0 | 0.0 | 0.00 | 0.08 | 0.00 | 92 | 1019.6 | |
| 20260503080521 | 5 | 0.0 | 0.0 | 0.00 | 0.08 | 0.00 | 92 | 1019.5 | |
| 20260503072521 | 5 | 0.0 | 0.0 | 0.00 | 0.08 | 0.00 | 92 | 1019.8 | |
| 20260503071521 | 5 | 0.0 | 0.0 | 0.00 | 0.08 | 0.00 | 92 | 1019.9 | |
| 20260503070522 | 6 | 0.0 | 0.0 | 0.00 | 0.08 | 0.00 | 92 | 1019.8 | |
| 20260503054521 | 6 | 0.0 | 0.0 | 0.00 | 0.08 | 0.00 | 91 | 1020.0 | |
| 20260503053521 | 6 | 0.0 | 0.0 | 0.00 | 0.08 | 0.00 | 91 | 1020.0 | |
| 20260503052516 | 6 | 0.0 | 0.0 | 0.00 | 0.08 | 0.00 | 91 | 1020.0 | |
| 20260503051521 | 6 | 0.0 | 0.0 | 0.00 | 0.08 | 0.00 | 91 | 1020.0 | |
| 20260503050541 | 6 | 0.0 | 0.0 | 0.00 | 0.08 | 0.00 | 90 | 1019.9 | |
| 20260503045542 | 6 | 0.0 | 0.0 | 0.00 | 0.08 | 0.08 | 90 | 1020.0 | |
| 20260503044522 | 6 | 0.0 | 0.0 | 0.00 | 0.08 | 0.08 | 90 | 1019.8 | |
| 20260503043542 | 6 | 0.0 | 0.0 | 0.00 | 0.08 | 0.08 | 90 | 1019.7 | |
| 20260503042522 | 6 | 0.0 | 0.0 | 0.00 | 0.08 | 0.08 | 89 | 1019.6 | |
| 20260503041522 | 6 | 0.0 | 0.0 | 0.00 | 0.08 | 0.08 | 88 | 1019.6 | |
| 20260503040517 | 7 | 0.0 | 0.0 | 0.00 | 0.08 | 0.08 | 88 | 1019.6 | |
| 20260503035517 | 7 | 0.0 | 0.0 | 0.00 | 0.08 | 0.08 | 87 | 1019.6 | |
| 20260503034522 | 7 | 0.0 | 0.0 | 0.00 | 0.08 | 0.08 | 85 | 1019.7 | |
| 20260503033522 | 8 | 0.0 | 0.0 | 0.00 | 0.08 | 0.08 | 85 | 1019.8 | |
| 20260503032522 | 8 | 0.0 | 0.0 | 0.00 | 0.08 | 0.08 | 85 | 1019.7 | |
| 20260503031522 | 8 | 0.0 | 0.0 | 0.00 | 0.08 | 0.08 | 84 | 1019.7 | |
| 20260503030522 | 8 | 0.0 | 0.0 | 0.00 | 0.08 | 0.08 | 84 | 1019.6 | |
| 20260503025517 | 8 | 0.0 | 0.0 | 0.00 | 0.08 | 0.08 | 83 | 1019.6 | |
| 20260503024520 | 8 | 0.0 | 0.0 | 0.00 | 0.08 | 0.08 | 84 | 1019.7 | |
| 20260503023522 | 8 | 0.0 | 0.0 | 0.00 | 0.08 | 0.08 | 82 | 1019.5 | |
| 20260503022522 | 9 | 0.0 | 0.0 | 0.00 | 0.08 | 0.08 | 78 | 1019.5 | |
| 20260503021522 | 8 | 0.0 | 0.0 | 0.00 | 0.08 | 0.08 | 81 | 1019.3 | |
| 20260503020520 | 8 | 0.0 | 0.0 | 0.00 | 0.08 | 0.08 | 82 | 1019.3 | |
| 20260503015522 | 9 | 0.0 | 0.0 | 0.00 | 0.08 | 0.08 | 80 | 1019.2 | |
| 20260503014537 | 10 | 0.0 | 0.0 | 0.00 | 0.08 | 0.08 | 79 | 1019.0 | |
| 20260503013522 | 10 | 0.0 | 0.0 | 0.00 | 0.08 | 0.08 | 77 | 1019.0 | |
| 20260503012522 | 10 | 0.0 | 0.0 | 0.00 | 0.08 | 0.08 | 77 | 1019.0 | |
| 20260503011542 | 10 | 0.0 | 0.0 | 0.00 | 0.08 | 0.08 | 76 | 1018.8 | |
| 20260503010542 | 11 | 0.0 | 0.0 | 0.00 | 0.08 | 0.08 | 74 | 1018.7 | |
| 20260503005522 | 11 | 0.0 | 0.0 | 0.00 | 0.08 | 0.08 | 71 | 1018.7 | |
| 20260503004522 | 11 | 0.0 | 0.0 | 0.00 | 0.08 | 0.08 | 70 | 1018.6 | |
| 20260503003517 | 11 | 0.0 | 0.0 | 0.00 | 0.08 | 0.08 | 69 | 1018.6 | |
| 20260503002522 | 12 | 0.0 | 0.0 | 0.00 | 0.08 | 0.08 | 68 | 1018.5 | |
| 20260503001522 | 12 | 0.0 | 1.6 | 0.00 | 0.08 | 0.08 | 67 | 1018.5 | |
| 20260503000522 | 12 | 299 | 0.0 | 1.6 | 0.00 | 0.08 | 0.08 | 67 | 1018.5 |
| 20260502235523 | 12 | 0.0 | 0.0 | 0.00 | 0.08 | 0.08 | 63 | 1018.3 | |
| 20260502234522 | 12 | 0.0 | 0.0 | 0.00 | 0.08 | 0.08 | 65 | 1018.4 | |
| 20260502233537 | 13 | 299 | 0.0 | 4.8 | 0.00 | 0.08 | 0.08 | 59 | 1018.4 |
| 20260502232516 | 14 | 301 | 0.0 | 4.8 | 0.00 | 0.08 | 0.08 | 51 | 1018.4 |
| 20260502231522 | 14 | 300 | 1.6 | 4.8 | 0.00 | 0.08 | 0.08 | 53 | 1018.4 |
| 20260502230542 | 14 | 299 | 1.6 | 8.0 | 0.00 | 0.08 | 0.08 | 54 | 1018.4 |
| 20260502225522 | 14 | 299 | 1.6 | 4.8 | 0.00 | 0.08 | 0.08 | 54 | 1018.4 |
| 20260502224522 | 14 | 301 | 1.6 | 8.0 | 0.00 | 0.08 | 0.08 | 57 | 1018.3 |
| 20260502223522 | 14 | 323 | 1.6 | 6.4 | 0.00 | 0.08 | 0.08 | 51 | 1018.4 |
| 20260502222517 | 14 | 325 | 1.6 | 9.7 | 0.00 | 0.08 | 0.08 | 56 | 1018.3 |
| 20260502221522 | 14 | 296 | 1.6 | 8.0 | 0.00 | 0.08 | 0.08 | 61 | 1018.3 |
| 20260502220522 | 13 | 289 | 1.6 | 6.4 | 0.00 | 0.08 | 0.08 | 59 | 1018.4 |
| 20260502215522 | 13 | 294 | 1.6 | 6.4 | 0.00 | 0.08 | 0.08 | 64 | 1018.5 |
| 20260502214522 | 12 | 296 | 0.0 | 4.8 | 0.00 | 0.08 | 0.08 | 65 | 1018.5 |
| 20260502213522 | 12 | 296 | 0.0 | 6.4 | 0.00 | 0.08 | 0.08 | 60 | 1018.5 |
| 20260502212517 | 13 | 296 | 0.0 | 3.2 | 0.00 | 0.08 | 0.08 | 67 | 1018.6 |
| 20260502211517 | 12 | 0.0 | 4.8 | 0.03 | 0.08 | 0.08 | 73 | 1018.6 | |
| 20260502210542 | 10 | 0.0 | 0.0 | 0.03 | 0.08 | 0.08 | 81 | 1018.6 | |
| 20260502205522 | 10 | 0.0 | 3.2 | 0.03 | 0.08 | 0.08 | 81 | 1018.7 | |
| 20260502204522 | 10 | 0.0 | 1.6 | 0.08 | 0.08 | 0.08 | 79 | 1018.9 |